Probability
0 0 0 0 0 0 0 0 0 0 0 0 0 0 0 0 0 0 0 0 0 0 0 0 0 0 0 0 0 0 0 0 0 0 0 0 0 0
0 0 0 0 0 0 0 0 0 0 0 0 0 0 0 0 0 0 0 0 0 0 0 0 0 0 0 0 0 0 0 0 0 0 0 0 0 0
0 0 0 0 0 0 0 0 0 0 0 0 0 0 0 0 0 0 0 0 0 0 0 0 0 0 0 0 0 0 0 0 0 0 0 0 0 0
0 0 0 0 0 0 0 0 0 0 0 0 0 0 0 0 0 0 0 0 0 0 0 0 0 0 0 0 0 0 0 0 0 0 0 0 0 0
0 0 0 0 0 0 0 0 0 0 0 0 0 0 0 0 0 0 0 0 0 0 0 0 0 0 0 0 0 0 0 0 0 0 0 0 0 0
0 0 0 0 0 0 0 0 0 0 0 0 0 0 0 0 0 0 0 0 0 0 0 0 0 0 0 0 0 0 0 0 0 0 0 0 0 0
0 0 0 0 0 0 0 0 0 0 0 0 0 0 0 0 0 0 0 0 0 0 0 0 0 0 0 0 0 0 0 0 0 0 0 0 0 0
0 0 0 0 0 0 0 0 0 0 0 0 0 0 0 0 0 0 0 0 0 0 0 0 0 0 0 0 0 0 0 0 0 0 0 0 0 0
0 0 0 0 0 0 0 0 0 0 0 0 0 0 0 0 0 0 0 0 0 0 0 0 0 0 0 0 0 0 0 0 0 0 0 0 0 0
0 0 0 0 0 0 0 0 0 0 0 0 0 0 0 0 0 0 0 0 0 0 0 0 0 0 0 0 0 0 0 0 0 0 0 0 0 0
0 0 0 0 0 0 0 0 0 0 0 0 0 0 0 0 0 0 0 0 0 0 0 0 0 0 0 0 0 0 0 0 0 0 0 0 0 0
0 0 0 0 0 0 0 0 0 0 0 0 0 0 0 0 0 0 0 0 0 0 0 0 0 0 0 0 0 0 0 0 0 0 0 0 0 0
0 0 0 0 0 0 0 0 0 0 0 0 0 0 0 0 0 0 0 0 0 0 0 0 0 0 0 0 0 0 0 0 0 0 0 0 0 0
0 0 0 0 0 0 0 0 0 0 0 0 0 0 0 0 0 0 0 0 0 0 0 0 0 0 0 0 0 0 0 0 0 0 0 0 0 0
0 0 0 0 0 0 0 0 0 0 0 0 0 0 0 0 0 0 0 0 0 0 0 0 0 0 0 0 0 0 0 0 0 0 0 0 0 0
0 0 0 0 0 0 0 0 0 0 0 0 0 0 0 0 0 0 0 0 0 0 0 0 0 0 0 0 0 0 0 0 0 0 0 0 0 0
0 0 0 0 0 0 0 0 0 0 0 0 0 0 0 0 0 0 0 0 0 0 0 0 0 0 0 0 0 0 0 0 0 0 0 0 0 0
0 0 0 0 0 0 0 0 0 0 0 0 0 0 0 0 0 0 0 0 0 0 0 0 0 0 0 0 0 0 0 0 0 0 0 0 0 0
0 0 0 0 0 0 0 0 0 0 0 0 0 0 0 0 0 0 0 0 0 0 0 0 0 0 0 0 0 0 0 0 0 0 0 0 0 0
0 0 0 0 0 0 0 0 0 0 0 0 0 0 0 0 0 0 0 0 0 0 0 0 0 0 0 0 0 0 0 0 0 0 0 0 0 0
0 0 0 0 0 0 0 0 0 0 0 0 0 0 0 0 0 0 0 0 0 0 0 0 0 0 0 0 0 0 0 0 0 0 0 0 0 0
0 0 0 0 0 0 0 0 0 0 0 0 0 0 0 0 0 0 0 0 0 0 0 0 0 0 0 0 0 0 0 0 0 0 0 0 0 0
0 0 0 0 0 0 0 0 0 0 0 0 0 0 0 0 0 0 0 0 0 0 0 0 0 0 0 0 0 0 0 0 0 0 0 0 0 0
Height
5638 5638 5639 5640 5640 5640 5640 5641 5642 5643 5644 5644 5643 5642 5642 5642 5643 5643 5644 5645 5646 5647 5648 5649 5651 5652 5654 5655 5657 5659 5660 5661 5662 5663 5664 5664 5665 5665
5622 5623 5624 5624 5625 5625 5625 5625 5625 5626 5627 5629 5628 5628 5627 5628 5627 5628 5629 5630 5631 5632 5633 5635 5636 5638 5639 5641 5643 5644 5646 5647 5648 5649 5650 5651 5652 5652
5607 5608 5608 5608 5609 5609 5609 5609 5609 5609 5610 5612 5612 5612 5612 5612 5612 5612 5613 5614 5615 5617 5618 5619 5621 5622 5624 5626 5628 5629 5631 5632 5634 5635 5636 5637 5638 5639
5592 5592 5593 5593 5593 5593 5593 5593 5593 5593 5593 5595 5596 5595 5595 5596 5596 5596 5597 5598 5600 5601 5603 5604 5605 5607 5609 5610 5612 5614 5616 5617 5619 5620 5622 5623 5624 5624
5576 5576 5577 5577 5577 5577 5577 5577 5577 5577 5576 5577 5579 5579 5578 5578 5578 5579 5580 5581 5583 5585 5586 5588 5590 5591 5593 5595 5596 5598 5600 5602 5604 5605 5606 5607 5608 5610
5559 5560 5560 5561 5561 5561 5560 5560 5560 5560 5560 5560 5561 5561 5561 5561 5561 5562 5563 5565 5567 5568 5570 5572 5574 5575 5577 5579 5581 5582 5584 5585 5587 5589 5590 5592 5593 5594
5543 5543 5544 5544 5543 5543 5543 5543 5543 5543 5543 5543 5544 5544 5544 5544 5545 5545 5546 5548 5549 5551 5553 5555 5557 5559 5561 5563 5564 5566 5567 5569 5571 5572 5574 5575 5577 5578
5527 5527 5527 5527 5526 5526 5526 5526 5526 5526 5526 5526 5527 5527 5528 5528 5528 5528 5529 5531 5533 5535 5535 5538 5539 5542 5544 5547 5548 5549 5551 5552 5554 5556 5557 5559 5560 5561
5510 5510 5510 5510 5509 5509 5509 5509 5508 5508 5509 5509 5510 5510 5511 5512 5512 5512 5512 5513 5515 5517 5518 5521 5522 5525 5527 5529 5531 5532 5534 5535 5537 5538 5540 5541 5543 5544
5493 5493 5493 5493 5492 5492 5492 5492 5492 5492 5492 5493 5494 5494 5494 5494 5494 5495 5495 5497 5498 5499 5500 5503 5505 5507 5510 5511 5513 5515 5516 5518 5519 5521 5522 5524 5525 5526
5476 5476 5476 5476 5476 5475 5475 5476 5476 5475 5474 5475 5475 5476 5476 5477 5477 5477 5478 5479 5481 5483 5484 5486 5488 5490 5492 5494 5495 5497 5498 5500 5502 5503 5504 5506 5507 5508
5460 5459 5459 5459 5458 5457 5458 5458 5458 5458 5458 5458 5458 5458 5459 5460 5460 5461 5462 5463 5464 5467 5468 5469 5471 5472 5475 5477 5478 5479 5481 5483 5484 5486 5487 5488 5489 5490
5443 5443 5443 5442 5441 5441 5441 5441 5442 5441 5441 5441 5442 5442 5443 5443 5444 5444 5445 5446 5448 5450 5451 5452 5454 5454 5456 5460 5461 5462 5463 5465 5466 5468 5469 5471 5472 5473
5426 5426 5426 5425 5425 5425 5425 5425 5425 5425 5425 5425 5426 5427 5427 5428 5428 5428 5429 5430 5431 5433 5434 5435 5437 5437 5439 5441 5443 5445 5446 5447 5449 5451 5452 5454 5455 5456
5410 5410 5410 5409 5409 5409 5409 5409 5408 5408 5409 5409 5410 5411 5411 5411 5411 5412 5412 5413 5414 5415 5417 5418 5419 5420 5421 5422 5425 5426 5428 5430 5431 5433 5435 5437 5438 5440
5393 5393 5393 5393 5393 5393 5393 5393 5392 5392 5392 5393 5393 5394 5394 5394 5394 5395 5396 5397 5398 5399 5399 5401 5401 5403 5404 5405 5406 5408 5410 5412 5414 5415 5417 5420 5421 5423
5377 5377 5378 5378 5378 5377 5377 5377 5376 5376 5376 5376 5377 5377 5378 5378 5378 5379 5379 5380 5381 5382 5383 5384 5385 5385 5387 5388 5389 5391 5393 5395 5397 5398 5400 5403 5405 5407
5363 5363 5363 5362 5362 5361 5361 5361 5360 5360 5360 5360 5361 5361 5362 5362 5362 5363 5363 5364 5365 5366 5367 5368 5369 5370 5371 5373 5374 5375 5376 5379 5381 5382 5384 5386 5390 5391
5349 5349 5348 5348 5347 5346 5346 5346 5346 5345 5345 5345 5345 5345 5346 5346 5347 5348 5348 5349 5350 5350 5351 5352 5353 5354 5356 5358 5359 5359 5361 5363 5365 5367 5368 5371 5374 5376
5335 5335 5335 5334 5333 5333 5332 5332 5332 5331 5331 5331 5331 5331 5331 5332 5332 5333 5334 5334 5335 5336 5337 5338 5339 5340 5341 5343 5345 5346 5347 5348 5350 5352 5354 5356 5359 5361
5323 5322 5321 5321 5320 5319 5319 5318 5318 5318 5317 5317 5317 5318 5318 5318 5319 5319 5319 5320 5321 5322 5323 5324 5325 5326 5327 5329 5331 5333 5334 5335 5336 5338 5340 5342 5345 5347
5310 5309 5309 5308 5307 5307 5306 5305 5305 5305 5305 5304 5304 5304 5304 5305 5305 5306 5306 5307 5307 5308 5309 5311 5311 5313 5314 5316 5318 5320 5322 5323 5324 5325 5327 5329 5331 5334
5299 5298 5297 5296 5295 5295 5294 5293 5292 5292 5292 5292 5292 5292 5292 5292 5293 5293 5293 5294 5295 5296 5297 5298 5299 5300 5302 5304 5306 5308 5309 5311 5312 5314 5315 5316 5318 5320
Wind_Speed
55 54 54 53 53 54 55 55 55 55 54 54 54 53 53 54 54 55 55 54 55 55 54 53 53 53 53 53 52 52 52 51 51 51 51 51 51 50
57 57 56 56 55 55 56 57 57 56 56 55 56 55 55 55 56 56 56 55 55 55 55 55 54 54 54 54 53 53 53 52 52 52 52 51 51 51
59 59 59 58 58 57 57 58 58 58 57 56 56 57 57 56 57 56 56 56 55 55 55 55 55 55 55 55 55 55 55 55 54 54 53 53 52 51
60 60 60 59 59 59 59 59 58 58 58 57 57 57 58 59 59 58 57 57 57 56 56 56 57 57 56 56 56 56 56 56 55 55 54 54 55 53
60 60 59 59 59 59 60 61 60 59 60 59 58 58 59 59 59 59 59 58 57 56 56 57 56 57 57 57 56 56 57 57 56 56 56 55 55 55
60 61 60 60 60 60 60 61 61 61 62 61 60 60 59 59 60 60 59 59 58 58 57 58 57 57 57 57 57 57 57 57 56 56 56 56 56 56
59 60 60 61 61 61 61 61 60 61 61 61 60 60 59 59 59 59 60 59 59 59 59 59 58 57 57 57 57 57 57 57 57 57 57 58 58 57
58 59 59 60 60 61 61 60 60 59 59 60 59 59 59 59 59 59 59 59 59 59 59 59 59 58 58 58 58 58 59 59 59 59 59 59 58 58
58 58 59 59 59 59 59 59 59 59 59 59 59 59 59 59 59 59 60 59 59 59 59 59 59 59 59 59 59 60 60 60 60 60 61 61 60 59
58 58 58 58 57 58 58 58 58 58 59 60 60 60 60 59 59 58 59 58 58 59 59 59 59 59 59 59 60 60 60 61 61 61 61 61 61 61
57 57 57 57 57 57 57 57 57 58 58 58 58 58 58 58 58 57 57 58 58 58 59 58 58 58 58 58 59 59 59 60 60 60 60 61 61 62
56 56 56 56 56 56 56 55 55 56 56 57 57 58 57 57 56 57 57 57 57 57 57 58 58 58 58 58 58 59 59 59 59 59 59 59 60 61
54 55 55 55 55 54 55 54 54 54 55 55 56 55 55 55 56 56 57 57 57 57 57 57 58 58 59 59 59 60 60 60 59 58 58 58 58 58
53 53 54 55 54 54 54 54 55 55 55 55 55 55 55 55 55 55 56 57 57 57 57 57 57 57 58 59 58 59 59 59 59 58 58 57 57 56
52 52 53 53 53 54 54 55 55 55 55 56 56 56 56 56 55 55 56 57 57 57 57 57 57 57 57 57 57 57 57 57 58 57 57 57 57 56
51 51 52 52 52 53 53 53 53 53 54 54 54 55 55 54 55 55 55 56 57 56 57 57 56 56 56 56 56 56 57 56 56 56 56 56 56 56
49 49 50 50 51 51 51 51 52 53 53 53 53 53 53 53 53 54 54 55 56 56 56 56 56 56 55 54 55 55 55 55 55 55 55 54 55 55
46 47 47 48 49 49 49 49 50 50 50 51 52 52 53 53 52 51 51 51 52 52 52 53 53 53 53 53 53 52 52 52 52 53 53 53 54 54
44 44 45 45 45 46 47 46 47 47 48 48 48 48 49 50 50 50 50 50 49 49 49 49 49 49 49 50 49 49 49 49 49 50 51 52 52 51
42 42 42 43 43 43 44 44 45 45 45 45 46 46 46 47 48 48 49 49 48 48 48 48 48 47 47 46 46 46 46 46 46 47 49 50 50 49
40 40 40 40 41 41 42 42 43 43 43 43 43 44 44 45 45 45 46 46 46 46 46 46 46 46 46 45 44 43 44 44 44 44 46 47 47 47
38 38 38 39 39 39 40 40 40 41 41 42 42 42 42 42 42 42 43 43 44 44 43 44 44 44 43 42 42 42 42 43 43 44 44 45 44 44
36 36 36 36 36 36 37 37 37 38 38 39 39 39 39 39 40 39 39 40 40 41 40 40 41 42 41 41 40 40 40 40 41 42 42 43 43 42
Wind_Direction
264 263 264 265 266 266 266 266 267 267 266 266 266 266 266 264 265 265 265 264 263 262 262 262 262 262 262 262 262 262 263 263 264 264 265 266 266 266
265 265 265 266 267 267 268 267 268 268 268 267 266 266 266 265 266 265 265 264 263 262 262 262 262 261 261 261 261 262 262 263 264 264 264 265 266 266
265 265 266 267 267 267 268 268 268 268 268 267 267 266 266 266 266 265 264 263 262 262 262 262 262 262 261 261 261 262 262 263 264 264 264 264 265 265
264 265 266 267 268 268 268 268 268 268 268 268 268 267 267 266 266 265 263 262 262 262 262 262 263 262 261 261 261 262 263 263 263 264 264 263 263 263
264 265 266 266 267 268 268 268 268 268 268 268 268 268 268 267 266 265 263 262 261 261 261 262 262 262 262 261 261 261 262 262 262 262 262 263 264 264
264 265 266 266 267 267 268 269 269 268 268 268 268 268 267 267 266 264 263 262 261 261 261 262 262 262 262 262 262 261 262 262 261 262 262 262 262 263
265 265 266 267 267 268 268 268 268 268 268 268 268 267 267 267 266 265 263 263 262 262 261 261 261 262 262 262 262 263 262 262 262 262 262 262 262 263
265 266 266 268 268 268 268 268 267 267 267 267 267 267 267 267 266 265 263 263 262 262 262 261 261 261 262 262 262 262 262 262 262 262 262 262 262 262
266 266 267 268 268 268 268 268 267 267 267 267 267 267 267 267 266 264 263 263 263 262 263 262 261 261 261 261 261 262 262 262 262 262 262 262 262 262
266 267 267 267 267 268 268 268 268 268 267 267 266 266 266 266 265 264 262 262 262 262 262 263 262 262 261 261 261 261 262 262 262 262 262 261 261 261
266 267 267 267 267 267 268 268 268 267 267 267 267 267 266 266 265 263 262 261 261 261 262 262 262 262 261 261 261 262 263 263 262 261 261 261 260 260
266 267 267 268 268 268 268 268 267 267 266 266 266 266 265 265 263 262 262 262 262 262 262 262 263 262 262 261 262 262 263 263 262 262 262 262 261 262
266 266 266 267 268 268 269 268 267 266 266 266 266 266 265 265 265 264 263 262 263 263 263 263 263 263 263 262 262 262 262 262 262 261 262 262 262 262
267 267 267 267 267 268 268 268 267 267 267 266 265 265 265 266 265 265 263 263 264 264 263 263 263 264 264 263 262 262 262 261 261 261 261 261 262 262
267 267 267 267 267 268 268 268 267 267 267 267 266 266 266 266 265 265 264 263 264 264 263 264 264 264 264 264 263 262 262 261 261 261 261 261 261 261
268 268 268 268 268 269 268 268 268 268 268 267 267 266 266 266 265 265 265 264 263 263 263 263 264 265 265 264 263 262 262 262 261 261 260 259 259 259
268 268 268 268 268 268 268 268 268 268 268 267 267 266 266 266 265 265 265 264 263 262 263 263 264 264 264 264 263 262 263 262 261 260 258 258 258 259
269 269 269 269 269 269 269 268 267 267 267 266 266 266 266 265 265 264 264 264 263 262 262 263 263 263 263 263 263 262 261 261 259 259 259 258 258 258
271 270 270 269 270 269 269 268 268 268 268 267 266 266 265 265 264 263 263 263 263 263 263 263 263 263 263 263 261 260 260 259 259 259 259 258 258 258
271 271 270 270 269 269 269 268 268 268 267 267 267 266 266 265 265 264 263 263 263 264 263 263 263 263 263 261 259 258 260 261 260 258 257 257 257 258
271 272 271 271 270 270 269 268 267 267 267 267 267 266 266 266 266 265 264 263 263 263 263 262 263 263 261 259 257 258 259 260 260 259 258 257 258 258
272 272 272 272 271 271 270 270 269 268 267 267 267 266 266 266 266 265 264 263 263 263 263 262 262 261 259 257 256 257 259 260 260 259 259 260 260 259
273 273 273 273 272 271 271 271 270 270 269 268 266 266 266 266 265 264 263 262 263 262 262 262 261 259 257 256 256 258 260 260 260 260 260 261 261 261